Weather History for McGrath, AK

Change the Weather History Date:

Friday, February 1, 2013

  Actual Average Record
Temperature  
Mean Temperature -5 °F -4 °F  
Max Temperature 9 °F - 49 °F (2007)
Min Temperature -19 °F -13 °F -61 °F (1947)
Degree Days  
Heating Degree Days 70 69  
Month to date heating degree days 70 69  
Since 1 July heating degree days 8799 8528  
Cooling Degree Days 0    
Month to date cooling degree days 0  
Year to date cooling degree days 0  
Moisture  
Dew Point -10 °F    
Average Humidity 0    
Maximum Humidity 0    
Minimum Humidity 0    
Precipitation  
Precipitation 0.00 in 0.03 in 0.34 in (1948)
Month to date precipitation 0.00 0.03  
Year to date precipitation 2.52 1.12  
Snow  
Snow 0.00 in 0.50 in 4.10 in (2000)
Month to date snowfall 0.0 0.5  
Since 1 July snowfall 55.8 67.4  
Snow Depth 39.00 in    
Sea Level Pressure  
Sea Level Pressure 29.97 in    
Wind  
Wind Speed 1 mph (NW)    
Max Wind Speed 9 mph    
Max Gust Speed 12 mph    
Visibility 10 miles    
Events      
T = Trace of Precipitation, MM = Missing Value Source: NWS Daily Summary

Daily Weather History Graph

Daily Weather History Graph

Search for Another Location

Airport:

Trip Planner

Search our weather history database for the weather conditions in past years. The results will help you decide how hot, cold, wet, or windy it might be!

Date:

Astronomy

Feb. 01, 2013 Rise Set
Actual Time 9:52 AM AKST 5:20 PM AKST
Civil Twilight 8:59 AM AKST 6:14 PM AKST
Nautical Twilight 8:03 AM AKST 7:10 PM AKST
Astronomical Twilight 7:09 AM AKST 8:03 PM AKST
Moon 12:38 AM AKST (2/1) 10:19 AM AKST (2/1)
Length of Visible Light 9h 14m
Length of Day
7h 27m
Waning Gibbous, 69% of the Moon is Illuminated
Feb 1
Waning Gibbous
Feb 3
Last Quarter
Feb 9
New
Feb 17
First Quarter
Feb 25
Full

Hourly Weather History & Observations

Time (AKST) Temp. Windchill Dew Point Humidity Pressure Visibility Wind Dir Wind Speed Gust Speed Precip Events Conditions
12:53 AM -16.1 °F - -22.0 °F 74% 30.15 in 10.0 mi Calm Calm - N/A   Clear
1:53 AM -16.1 °F -28.6 °F -20.9 °F 79% 30.14 in 10.0 mi NNW 4.6 mph - N/A   Clear
3:02 AM -14.8 °F - -20.2 °F 77% 30.09 in 10.0 mi Calm Calm - N/A   Partly Cloudy
3:53 AM -14.1 °F -23.9 °F -20.0 °F 75% 30.12 in 10.0 mi NW 3.5 mph - N/A   Partly Cloudy
4:53 AM -11.9 °F -23.8 °F -17.0 °F 78% 30.11 in 10.0 mi West 4.6 mph - N/A   Clear
5:53 AM -13.0 °F -22.7 °F -18.9 °F 75% 30.09 in 10.0 mi West 3.5 mph - N/A   Scattered Clouds
6:53 AM -16.1 °F - -20.9 °F 79% 30.09 in 10.0 mi Calm Calm - N/A   Scattered Clouds
7:53 AM -16.1 °F - -20.9 °F 79% 30.07 in 10.0 mi Calm Calm - N/A   Scattered Clouds
8:53 AM -11.9 °F -21.5 °F -17.0 °F 78% 30.05 in 10.0 mi West 3.5 mph - N/A   Scattered Clouds
9:53 AM -15.0 °F - -20.0 °F 78% 30.04 in 10.0 mi Calm Calm - N/A   Mostly Cloudy
10:53 AM -8.0 °F - -11.9 °F 83% 30.05 in 10.0 mi Calm Calm - N/A   Mostly Cloudy
11:53 AM -5.1 °F - -9.9 °F 80% 30.02 in 10.0 mi Calm Calm - N/A   Mostly Cloudy
12:53 PM -7.1 °F - -11.0 °F 83% 29.99 in 10.0 mi Calm Calm - N/A   Mostly Cloudy
1:53 PM 3.9 °F -3.4 °F -0.0 °F 84% 29.96 in 10.0 mi North 3.5 mph - N/A   Mostly Cloudy
2:53 PM 8.1 °F -0.5 °F 3.9 °F 83% 29.91 in 10.0 mi NNW 4.6 mph - N/A   Mostly Cloudy
3:53 PM 7.0 °F - 3.9 °F 87% 29.90 in 10.0 mi Calm Calm - N/A   Mostly Cloudy
4:53 PM 6.1 °F -0.9 °F 1.9 °F 83% 29.88 in 10.0 mi West 3.5 mph - N/A   Clear
5:53 PM 3.0 °F - -0.0 °F 87% 29.87 in 10.0 mi Calm Calm - N/A   Clear
6:53 PM -0.0 °F - -4.0 °F 83% 29.84 in 10.0 mi Calm Calm - N/A   Clear
7:53 PM 1.0 °F - -2.9 °F 83% 29.83 in 10.0 mi Calm Calm - N/A   Clear
8:53 PM -2.0 °F - -6.0 °F 83% 29.80 in 10.0 mi Calm Calm - N/A   Scattered Clouds
9:53 PM -2.9 °F - -7.1 °F 82% 29.77 in 10.0 mi Calm Calm - N/A   Clear
10:53 PM -0.0 °F - -4.0 °F 83% 29.75 in 10.0 mi Calm Calm - N/A   Clear
11:53 PM 1.9 °F - -2.0 °F 83% 29.74 in 10.0 mi Calm Calm - N/A   Scattered Clouds